#�ϑ�����,���ϕ���,���ϕ���,�ő啗��,�ő啗����������,�ő�u�ԕ���,�ő�u�ԕ�����������
#(�N����),(m/s)   ,(16����),(m/s)   ,(16����)        ,(m/s)       ,(16����)            
2016/3/21 0:01,4,15,4.4,15,5,16
2016/3/21 0:02,3.8,15,4,15,7.4,16
2016/3/21 0:03,3.8,15,3.8,16,7.5,14
2016/3/21 0:04,3.8,15,3.8,15,5.5,15
2016/3/21 0:05,3.6,15,3.8,15,5.7,1
2016/3/21 0:06,3.8,15,3.8,15,12.7,15
2016/3/21 0:07,3.7,15,3.7,15,6.1,16
2016/3/21 0:08,4,15,4,15,10.2,16
2016/3/21 0:09,4.4,15,4.5,15,9.3,16
2016/3/21 0:10,4.7,15,4.7,15,9,15
2016/3/21 0:11,4.8,15,4.8,15,6.5,16
2016/3/21 0:12,4.8,15,4.9,15,7.6,16
2016/3/21 0:13,4.6,16,4.8,15,7,13
2016/3/21 0:14,4.6,16,4.6,15,5.6,16
2016/3/21 0:15,4.5,16,4.6,15,5.2,16
2016/3/21 0:16,4.2,16,4.5,15,6.8,14
2016/3/21 0:17,4.5,16,4.5,15,9,15
2016/3/21 0:18,4.2,16,4.5,15,8.1,15
2016/3/21 0:19,3.8,15,4.1,15,4.7,14
2016/3/21 0:20,3.5,15,3.8,15,4.1,13
2016/3/21 0:21,3.2,15,3.4,15,3,15
2016/3/21 0:22,3.1,15,3.1,15,5.8,15
2016/3/21 0:23,3.1,15,3.2,16,4.2,15
2016/3/21 0:24,3.1,15,3.1,16,6.2,16
2016/3/21 0:25,3.3,15,3.3,16,7.9,15
2016/3/21 0:26,3.5,15,3.5,16,9.2,15
2016/3/21 0:27,3.1,14,3.5,16,5.6,14
2016/3/21 0:28,3.3,14,3.3,16,8.4,15
2016/3/21 0:29,3.4,15,3.4,15,7.4,15
2016/3/21 0:30,3.5,15,3.5,14,5.7,14
2016/3/21 0:31,3.8,15,3.8,15,9,15
2016/3/21 0:32,3.7,15,3.8,15,6.2,15
2016/3/21 0:33,3.7,15,3.7,15,4.5,14
2016/3/21 0:34,3.8,15,3.8,15,8.6,15
2016/3/21 0:35,4,15,4,15,10,16
2016/3/21 0:36,4,15,4,15,9.7,14
2016/3/21 0:37,4,15,4,15,5.7,15
2016/3/21 0:38,3.9,15,4,15,7.6,16
2016/3/21 0:39,4,15,4,15,9.1,15
2016/3/21 0:40,4.1,15,4.2,15,6.3,14
2016/3/21 0:41,4,15,4.1,15,10.6,15
2016/3/21 0:42,4.5,15,4.5,15,12.2,15
2016/3/21 0:43,4.8,15,4.8,15,9.4,16
2016/3/21 0:44,4.9,16,4.9,16,8.1,1
2016/3/21 0:45,4.8,15,4.9,16,9.3,15
2016/3/21 0:46,4.8,16,4.8,16,9.5,1
2016/3/21 0:47,5.3,16,5.3,16,13.9,15
2016/3/21 0:48,5.5,16,5.5,16,11,15
2016/3/21 0:49,5.4,16,5.5,16,5.8,1
2016/3/21 0:50,5.4,16,5.4,16,7.4,16
2016/3/21 0:51,5.6,16,5.6,16,7.5,15
2016/3/21 0:52,5.1,16,5.5,16,6,15
2016/3/21 0:53,4.7,15,5.1,16,2.5,15
2016/3/21 0:54,4.5,15,4.7,16,5.5,13
2016/3/21 0:55,4.2,16,4.5,16,4.4,3
2016/3/21 0:56,3.7,16,4.1,16,2.7,16
2016/3/21 0:57,3.2,16,3.6,16,5.2,14
2016/3/21 0:58,3,15,3.2,16,6.4,15
2016/3/21 0:59,3,15,3.1,16,7.6,15
2016/3/21 1:00,2.9,15,3,16,5.2,15
2016/3/21 1:01,2.5,15,2.8,16,1.6,3
2016/3/21 1:02,2.3,16,2.5,16,3.1,16
2016/3/21 1:03,2.4,16,2.4,15,3.9,16
2016/3/21 1:04,2.3,16,2.4,15,5.1,10
2016/3/21 1:05,2.2,15,2.3,16,1.5,16
2016/3/21 1:06,2.2,15,2.2,16,2.5,14
2016/3/21 1:07,2.1,15,2.2,16,2.5,14
2016/3/21 1:08,2,15,2.1,15,4.4,15
2016/3/21 1:09,1.8,15,2,15,4.3,16
2016/3/21 1:10,1.9,14,1.9,15,4.3,14
2016/3/21 1:11,2.1,14,2.1,15,4.9,16
2016/3/21 1:12,2.3,14,2.3,16,7.2,1
2016/3/21 1:13,2.6,14,2.6,14,8.5,15
2016/3/21 1:14,3.1,14,3.1,14,10.5,15
2016/3/21 1:15,3.6,14,3.6,14,9.5,16
2016/3/21 1:16,4.1,15,4.1,15,9.1,15
2016/3/21 1:17,4.2,15,4.2,15,5.4,16
2016/3/21 1:18,4.4,15,4.4,15,7.1,15
2016/3/21 1:19,4.6,15,4.6,15,7.9,15
2016/3/21 1:20,4.5,15,4.6,15,3.5,12
2016/3/21 1:21,4.3,15,4.4,15,3.5,1
2016/3/21 1:22,4.3,15,4.3,15,6,16
2016/3/21 1:23,4.1,15,4.2,15,5.1,16
2016/3/21 1:24,3.9,15,4,15,8.6,15
2016/3/21 1:25,3.8,15,3.8,15,9.7,16
2016/3/21 1:26,3.4,15,3.7,15,6,14
2016/3/21 1:27,3.3,15,3.4,15,3.5,1
2016/3/21 1:28,3.1,15,3.3,15,5.4,13
2016/3/21 1:29,3.1,15,3.1,15,6.7,14
2016/3/21 1:30,3.1,15,3.1,15,4.1,14
2016/3/21 1:31,3.3,15,3.3,15,6.2,15
2016/3/21 1:32,3.1,15,3.3,15,3.7,16
2016/3/21 1:33,3.1,15,3.1,15,8.9,16
2016/3/21 1:34,3.3,15,3.3,15,10.2,15
2016/3/21 1:35,3.2,15,3.4,15,7.5,16
2016/3/21 1:36,3,15,3.2,15,3.3,12
2016/3/21 1:37,2.9,15,3,15,1.5,16
2016/3/21 1:38,2.8,15,2.9,15,2.7,16
2016/3/21 1:39,2.4,15,2.8,15,1.1,16
2016/3/21 1:40,2.3,15,2.4,15,1.9,1
2016/3/21 1:41,2.1,15,2.3,15,1.3,15
2016/3/21 1:42,2,15,2.1,15,3,16
2016/3/21 1:43,2,15,2.1,15,4.5,15
2016/3/21 1:44,1.6,15,2,15,4.7,15
2016/3/21 1:45,1.6,15,1.6,15,4.9,15
2016/3/21 1:46,1.5,15,1.5,15,1.8,16
2016/3/21 1:47,1.6,15,1.6,15,3,14
2016/3/21 1:48,1.6,15,1.6,15,1.4,14
2016/3/21 1:49,1.6,15,1.6,15,1.3,2
2016/3/21 1:50,1.6,15,1.6,15,1,6
2016/3/21 1:51,1.5,15,1.6,15,1,6
2016/3/21 1:52,1.5,16,1.5,15,1,16
2016/3/21 1:53,1.3,16,1.5,15,2,3
2016/3/21 1:54,1.1,1,1.3,15,2.1,3
2016/3/21 1:55,0.9,2,1.1,15,2,6
2016/3/21 1:56,0.9,2,0.9,15,1.9,5
2016/3/21 1:57,0.9,3,0.9,15,2.2,12
2016/3/21 1:58,0.9,3,0.9,15,1.5,10
2016/3/21 1:59,0.9,5,0.9,15,2,1
2016/3/21 2:00,1,15,1,15,2.1,12
2016/3/21 2:01,1,14,1,15,1.9,8
2016/3/21 2:02,1.1,13,1.1,16,2.7,16
2016/3/21 2:03,1.1,13,1.1,16,3.1,15
2016/3/21 2:04,1.1,12,1.1,1,1.8,13
2016/3/21 2:05,1.1,13,1.1,13,1.4,11
2016/3/21 2:06,1.1,13,1.1,13,3.1,15
2016/3/21 2:07,1.1,13,1.2,13,3.1,12
2016/3/21 2:08,1.2,13,1.2,13,3.9,15
2016/3/21 2:09,1.5,14,1.5,14,5.8,15
2016/3/21 2:10,1.7,14,1.7,14,4.2,16
2016/3/21 2:11,1.9,14,1.9,14,4.7,16
2016/3/21 2:12,1.9,14,1.9,14,2.9,15
2016/3/21 2:13,1.9,15,1.9,14,2,2
2016/3/21 2:14,1.9,15,1.9,14,3.1,16
2016/3/21 2:15,2,16,2,15,2.4,2
2016/3/21 2:16,1.9,16,2,15,2,9
2016/3/21 2:17,1.9,16,1.9,15,2.2,10
2016/3/21 2:18,1.9,16,2,15,4.3,12
2016/3/21 2:19,1.8,16,1.9,15,7.1,14
2016/3/21 2:20,2,16,2,15,7.4,16
2016/3/21 2:21,2.1,16,2.1,16,6.8,16
2016/3/21 2:22,2.2,16,2.2,16,4.9,15
2016/3/21 2:23,2.4,16,2.4,16,4.1,15
2016/3/21 2:24,2.4,16,2.4,16,2.6,2
2016/3/21 2:25,2.4,15,2.4,16,2.5,1
2016/3/21 2:26,2.4,16,2.4,16,1.4,3
2016/3/21 2:27,2.4,16,2.4,16,3.6,7
2016/3/21 2:28,2.4,16,2.4,16,2.9,13
2016/3/21 2:29,2.3,16,2.4,16,4.2,13
2016/3/21 2:30,2,16,2.3,16,2.6,11
2016/3/21 2:31,1.8,15,2,16,3.3,12
2016/3/21 2:32,1.7,15,1.8,16,3.5,5
2016/3/21 2:33,1.5,15,1.6,16,2.9,5
2016/3/21 2:34,1.4,13,1.5,16,1.8,16
2016/3/21 2:35,1.3,13,1.4,15,1,6
2016/3/21 2:36,1.4,12,1.4,16,1.5,6
2016/3/21 2:37,1.4,14,1.4,16,1.6,1
2016/3/21 2:38,1.5,15,1.5,16,4.1,13
2016/3/21 2:39,1.4,16,1.5,16,4.5,14
2016/3/21 2:40,1.7,16,1.7,16,6.8,14
2016/3/21 2:41,1.8,1,1.8,15,7.7,15
2016/3/21 2:42,1.8,16,1.9,1,4.5,1
2016/3/21 2:43,1.8,15,1.8,1,1.5,12
2016/3/21 2:44,2,15,2,15,4.5,13
2016/3/21 2:45,2.1,15,2.1,15,3.6,15
2016/3/21 2:46,2.2,15,2.2,15,4.9,12
2016/3/21 2:47,2.4,14,2.4,14,4.4,13
2016/3/21 2:48,2.4,14,2.4,14,4.4,12
2016/3/21 2:49,2.3,13,2.4,14,3.2,12
2016/3/21 2:50,2.1,13,2.3,14,3.3,14
2016/3/21 2:51,2,12,2.2,14,3.7,13
2016/3/21 2:52,2.1,12,2.1,14,6.1,14
2016/3/21 2:53,2.4,13,2.4,14,5.8,15
2016/3/21 2:54,2.6,13,2.6,13,7.4,15
2016/3/21 2:55,3,13,3,13,8.6,1
2016/3/21 2:56,3.2,13,3.2,13,6.5,15
2016/3/21 2:57,3.1,14,3.2,13,4.7,15
2016/3/21 2:58,3,14,3.1,13,4.2,12
2016/3/21 2:59,3.1,14,3.1,13,5.1,15
2016/3/21 3:00,3.3,14,3.3,14,5.2,15
2016/3/21 3:01,3.4,15,3.4,15,6.1,16
2016/3/21 3:02,3.5,15,3.5,15,5.5,14
2016/3/21 3:03,3.4,14,3.5,15,3.7,12
2016/3/21 3:04,3,14,3.3,15,2.4,12
2016/3/21 3:05,2.7,14,3,15,3.3,15
2016/3/21 3:06,2.6,14,2.6,15,6.2,15
2016/3/21 3:07,2.6,14,2.6,15,6,15
2016/3/21 3:08,2.9,14,2.9,15,7.1,13
2016/3/21 3:09,3,14,3,15,6.1,16
2016/3/21 3:10,3.2,14,3.2,15,7.4,15
2016/3/21 3:11,3.2,14,3.2,15,7.7,16
2016/3/21 3:12,3.4,14,3.4,15,6.5,15
2016/3/21 3:13,3.5,15,3.5,15,6,16
2016/3/21 3:14,3.6,15,3.6,15,4.7,2
2016/3/21 3:15,3.7,16,3.7,16,4.4,2
2016/3/21 3:16,3.8,16,3.9,16,6.1,2
2016/3/21 3:17,3.8,16,3.8,16,4.5,3
2016/3/21 3:18,3.8,1,3.8,16,7.8,4
2016/3/21 3:19,4,2,4,1,8.7,3
2016/3/21 3:20,4.1,2,4.1,2,8.3,4
2016/3/21 3:21,3.9,3,4.1,2,7.8,5
2016/3/21 3:22,3.6,3,3.9,2,3.3,4
2016/3/21 3:23,3.5,3,3.6,2,3.8,4
2016/3/21 3:24,3.5,3,3.5,2,5.5,2
2016/3/21 3:25,3.4,4,3.5,2,3.1,14
2016/3/21 3:26,3.1,4,3.4,2,1.5,11
2016/3/21 3:27,2.8,4,3.1,2,0.5,14
2016/3/21 3:28,2.4,4,2.8,2,1.8,8
2016/3/21 3:29,1.9,3,2.3,2,1.1,4
2016/3/21 3:30,1.5,1,1.8,2,2.7,1
2016/3/21 3:31,1.4,1,1.5,3,3.1,2
2016/3/21 3:32,1.6,16,1.6,3,8.4,14
2016/3/21 3:33,1.8,15,1.8,3,7.5,14
2016/3/21 3:34,1.6,14,1.7,3,2.1,8
2016/3/21 3:35,1.6,14,1.6,4,3,15
2016/3/21 3:36,1.6,14,1.6,4,3.9,11
2016/3/21 3:37,2,14,2,4,6.1,15
2016/3/21 3:38,2.2,14,2.2,4,5.2,15
2016/3/21 3:39,2.3,15,2.3,15,4.4,16
2016/3/21 3:40,2.5,15,2.5,15,4.8,15
2016/3/21 3:41,2.4,14,2.5,15,2.7,1
2016/3/21 3:42,2.3,15,2.4,15,6.8,1
2016/3/21 3:43,2.2,15,2.3,15,5.2,1
2016/3/21 3:44,2.3,16,2.3,15,3.8,3
2016/3/21 3:45,2.4,1,2.4,15,3.6,3
2016/3/21 3:46,2.5,1,2.5,15,3.5,4
2016/3/21 3:47,2.4,2,2.4,15,4.7,6
2016/3/21 3:48,2.4,3,2.4,15,4.9,6
2016/3/21 3:49,2.6,3,2.6,3,6.5,6
2016/3/21 3:50,2.5,3,2.6,3,3.1,14
2016/3/21 3:51,2.6,3,2.6,3,4.1,13
2016/3/21 3:52,2.8,3,2.8,3,7.4,14
2016/3/21 3:53,3,2,3,3,7.5,15
2016/3/21 3:54,3,1,3,3,4.1,16
2016/3/21 3:55,2.8,16,2.9,3,2.5,15
2016/3/21 3:56,2.8,16,2.8,3,3.2,16
2016/3/21 3:57,2.7,15,2.8,3,2.2,16
2016/3/21 3:58,2.4,15,2.6,3,1.4,12
2016/3/21 3:59,2.3,14,2.4,3,2.6,12
2016/3/21 4:00,2.2,14,2.3,3,2.7,13
2016/3/21 4:01,2,14,2.2,3,1.3,3
2016/3/21 4:02,1.6,14,2,3,1.4,14
2016/3/21 4:03,1.3,14,1.6,2,4.2,14
2016/3/21 4:04,1.5,14,1.5,1,5,15
2016/3/21 4:05,1.7,14,1.7,16,4.8,15
2016/3/21 4:06,2,14,2,16,7.7,16
2016/3/21 4:07,2.2,14,2.2,15,4.7,16
2016/3/21 4:08,2.3,14,2.3,15,4.2,16
2016/3/21 4:09,2.2,15,2.3,14,2,1
2016/3/21 4:10,2.4,16,2.4,16,5.1,3
2016/3/21 4:11,2.6,16,2.6,16,3.7,4
2016/3/21 4:12,2.6,16,2.6,16,2.4,16
2016/3/21 4:13,2.6,16,2.6,16,3.2,14
2016/3/21 4:14,2.4,1,2.6,16,3.7,16
2016/3/21 4:15,2.3,1,2.4,16,2.4,14
2016/3/21 4:16,2.2,16,2.2,16,7.8,15
2016/3/21 4:17,2.2,1,2.3,16,6.4,15
2016/3/21 4:18,2.2,1,2.2,16,2.5,2
2016/3/21 4:19,2.3,1,2.3,16,4.5,15
2016/3/21 4:20,2.1,16,2.3,16,3.5,16
2016/3/21 4:21,2,16,2,16,2.5,15
2016/3/21 4:22,2.1,16,2.1,16,3.7,16
2016/3/21 4:23,2.2,16,2.2,16,4.4,1
2016/3/21 4:24,2.3,16,2.3,1,4.3,15
2016/3/21 4:25,2.4,16,2.4,16,4.7,16
2016/3/21 4:26,2.1,16,2.4,16,3.6,16
2016/3/21 4:27,2.2,16,2.2,16,4.2,15
2016/3/21 4:28,2.3,15,2.3,16,5.2,16
2016/3/21 4:29,2.4,15,2.4,16,4.9,16
2016/3/21 4:30,2.4,16,2.4,16,2.9,16
2016/3/21 4:31,2.6,16,2.6,16,4.9,16
2016/3/21 4:32,2.7,16,2.7,16,5.4,14
2016/3/21 4:33,2.6,16,2.7,16,3.6,16
2016/3/21 4:34,2.4,16,2.6,16,0.9,15
2016/3/21 4:35,2.2,16,2.4,16,0.6,1
2016/3/21 4:36,2,1,2.1,16,0.9,2
2016/3/21 4:37,1.7,1,2,16,0.8,4
2016/3/21 4:38,1.6,1,1.7,16,2.7,13
2016/3/21 4:39,1.3,1,1.5,16,2,15
2016/3/21 4:40,1.4,1,1.4,16,3.2,15
2016/3/21 4:41,1.2,1,1.4,16,3.2,16
2016/3/21 4:42,0.9,1,1.2,16,1.1,1
2016/3/21 4:43,0.8,1,0.9,16,1.3,15
2016/3/21 4:44,1,16,1,16,2.6,10
2016/3/21 4:45,1.2,15,1.2,16,3.3,12
2016/3/21 4:46,1.2,14,1.2,1,2.2,11
2016/3/21 4:47,1.2,14,1.2,1,1.6,1
2016/3/21 4:48,1.2,15,1.3,1,2.2,1
2016/3/21 4:49,1.3,14,1.3,1,3.3,14
2016/3/21 4:50,1.3,14,1.3,1,4.1,15
2016/3/21 4:51,1.3,15,1.3,14,2,15
2016/3/21 4:52,1.4,15,1.4,15,2.7,1
2016/3/21 4:53,1.5,16,1.5,15,2.6,4
2016/3/21 4:54,1.4,1,1.5,15,2.7,3
2016/3/21 4:55,1.3,1,1.4,15,2,6
2016/3/21 4:56,1.3,1,1.3,15,2,16
2016/3/21 4:57,1.4,1,1.4,15,3.8,14
2016/3/21 4:58,1.4,16,1.4,15,1.9,15
2016/3/21 4:59,1.6,16,1.6,16,6.9,16
2016/3/21 5:00,1.7,16,1.7,16,6.7,16
2016/3/21 5:01,2,16,2,16,5.6,16
2016/3/21 5:02,2.1,16,2.1,16,5.7,16
2016/3/21 5:03,2.2,15,2.2,15,3.3,1
2016/3/21 5:04,2.2,15,2.2,15,2.2,15
2016/3/21 5:05,2.1,16,2.2,15,1,1
2016/3/21 5:06,2.1,16,2.1,15,0.3,7
2016/3/21 5:07,1.8,16,2.1,15,0.8,15
2016/3/21 5:08,1.8,16,1.8,15,1.1,16
2016/3/21 5:09,1.6,1,1.8,15,1.1,3
2016/3/21 5:10,1.3,2,1.6,15,3.2,16
2016/3/21 5:11,1.2,2,1.3,15,3.8,16
2016/3/21 5:12,1,2,1.1,15,2.4,7
2016/3/21 5:13,0.9,3,1,15,2.4,4
2016/3/21 5:14,0.9,4,0.9,15,1.9,6
2016/3/21 5:15,0.9,4,0.9,16,0.9,3
2016/3/21 5:16,0.9,3,0.9,16,0.8,3
2016/3/21 5:17,0.9,2,1,16,0.5,16
2016/3/21 5:18,0.9,2,0.9,16,0.3,13
2016/3/21 5:19,0.8,1,0.9,1,0.4,8
2016/3/21 5:20,0.7,16,0.8,2,0.5,15
2016/3/21 5:21,0.5,13,0.7,2,0.8,11
2016/3/21 5:22,0.5,13,0.6,3,1.4,10
2016/3/21 5:23,0.5,13,0.5,2,4.1,14
2016/3/21 5:24,0.8,13,0.8,2,4.3,16
2016/3/21 5:25,1.1,13,1.1,13,6.8,15
2016/3/21 5:26,1.5,13,1.5,13,5.8,15
2016/3/21 5:27,1.7,14,1.7,14,4.2,16
2016/3/21 5:28,2.1,14,2.1,14,7.8,16
2016/3/21 5:29,2.6,14,2.6,14,10,16
2016/3/21 5:30,3,14,3,14,7.1,15
2016/3/21 5:31,3.2,15,3.2,14,7.2,16
2016/3/21 5:32,3.3,15,3.3,15,2.6,13
2016/3/21 5:33,3.4,15,3.4,15,6,15
2016/3/21 5:34,3.4,15,3.4,15,5.4,16
2016/3/21 5:35,3.4,15,3.4,15,6.4,16
2016/3/21 5:36,3.3,15,3.3,15,5.6,15
2016/3/21 5:37,3.4,15,3.4,15,7.9,15
2016/3/21 5:38,3.3,15,3.4,15,4.5,15
2016/3/21 5:39,3.2,15,3.3,15,7.4,1
2016/3/21 5:40,3.2,15,3.3,15,6.5,16
2016/3/21 5:41,3.4,15,3.4,15,7,15
2016/3/21 5:42,3.5,15,3.5,15,7.4,2
2016/3/21 5:43,3.8,15,3.8,15,9.9,14
2016/3/21 5:44,3.9,15,3.9,15,7.4,16
2016/3/21 5:45,4,15,4,15,7.7,16
2016/3/21 5:46,4.1,15,4.1,15,7.9,13
2016/3/21 5:47,4.2,15,4.2,15,6.1,16
2016/3/21 5:48,4.2,15,4.2,15,5.5,15
2016/3/21 5:49,4.2,15,4.3,15,7.5,15
2016/3/21 5:50,3.9,15,4.1,15,3.5,14
2016/3/21 5:51,3.8,16,3.9,15,4.7,1
2016/3/21 5:52,3.9,15,4,15,7.6,15
2016/3/21 5:53,3.5,16,3.9,15,5.2,15
2016/3/21 5:54,3.4,16,3.5,15,4.7,16
2016/3/21 5:55,3.2,16,3.4,15,6.4,15
2016/3/21 5:56,3.1,16,3.2,15,5.4,15
2016/3/21 5:57,3.1,16,3.1,15,5.5,16
2016/3/21 5:58,3.1,16,3.2,15,5,1
2016/3/21 5:59,3.2,16,3.2,15,8.9,15
2016/3/21 6:00,3.4,16,3.4,15,6.3,16
2016/3/21 6:01,3.5,16,3.5,15,6.5,15
2016/3/21 6:02,3.4,16,3.5,15,5.8,16
2016/3/21 6:03,3.3,16,3.3,16,3.1,1
2016/3/21 6:04,3.5,15,3.5,16,6.4,16
2016/3/21 6:05,3.6,15,3.6,15,7.5,15
2016/3/21 6:06,3.4,15,3.7,15,4.4,1
2016/3/21 6:07,3.2,15,3.4,15,2.4,15
2016/3/21 6:08,3.2,15,3.2,15,5.7,16
2016/3/21 6:09,2.9,15,3.2,15,5.4,15
2016/3/21 6:10,2.9,15,3,15,3.6,14
2016/3/21 6:11,2.9,15,2.9,15,8.4,15
2016/3/21 6:12,2.9,15,3,15,6.4,16
2016/3/21 6:13,3.1,15,3.1,15,7.1,16
2016/3/21 6:14,3.2,15,3.2,15,6.8,16
2016/3/21 6:15,3.1,15,3.1,15,7.4,14
2016/3/21 6:16,3.4,15,3.4,15,7.4,15
2016/3/21 6:17,3.6,16,3.6,16,6.1,16
2016/3/21 6:18,3.5,15,3.6,16,2.9,15
2016/3/21 6:19,3.2,15,3.5,16,1.3,1
2016/3/21 6:20,3.2,16,3.2,16,3.7,1
2016/3/21 6:21,2.9,16,3.2,16,1.9,15
2016/3/21 6:22,2.7,16,2.8,16,2.1,3
2016/3/21 6:23,2.4,16,2.7,16,1.9,3
2016/3/21 6:24,2,16,2.4,16,1,10
2016/3/21 6:25,1.7,1,2,16,2,12
2016/3/21 6:26,1.3,1,1.6,16,0.9,8
2016/3/21 6:27,1,4,1.3,16,1,7
2016/3/21 6:28,0.9,6,1,15,1.5,4
2016/3/21 6:29,1,5,1,15,3.2,2
2016/3/21 6:30,0.9,5,1,16,3.2,16
2016/3/21 6:31,1.2,6,1.2,16,6.9,15
2016/3/21 6:32,1.4,7,1.4,16,6.8,16
2016/3/21 6:33,1.7,8,1.7,16,6.3,15
2016/3/21 6:34,2,13,2,16,4.7,14
2016/3/21 6:35,2.1,16,2.1,16,4.3,15
2016/3/21 6:36,2.3,16,2.3,16,5.4,15
2016/3/21 6:37,2.6,16,2.6,16,5.8,16
2016/3/21 6:38,2.9,16,2.9,16,6,16
2016/3/21 6:39,3.1,15,3.1,15,5,15
2016/3/21 6:40,3,15,3.1,15,2.7,15
2016/3/21 6:41,2.7,15,3,15,0.4,1
2016/3/21 6:42,2.4,15,2.7,15,1.3,15
2016/3/21 6:43,2.1,15,2.3,15,1.9,14
2016/3/21 6:44,1.9,15,2.1,15,1.5,14
2016/3/21 6:45,1.8,14,1.9,15,1.5,10
2016/3/21 6:46,1.5,14,1.8,15,1.4,15
2016/3/21 6:47,1.3,14,1.5,15,1.5,15
2016/3/21 6:48,1.2,14,1.3,15,6.2,16
2016/3/21 6:49,1.3,14,1.3,15,5,16
2016/3/21 6:50,1.5,14,1.5,15,5,13
2016/3/21 6:51,1.7,14,1.7,15,3.6,1
2016/3/21 6:52,1.9,15,1.9,15,3,15
2016/3/21 6:53,2.1,15,2.1,15,4.7,15
2016/3/21 6:54,2.2,15,2.2,15,4.1,14
2016/3/21 6:55,2.3,15,2.3,15,4.1,16
2016/3/21 6:56,2.4,15,2.4,15,3.5,1
2016/3/21 6:57,2.5,15,2.5,15,4.1,1
2016/3/21 6:58,2.4,15,2.5,15,4.3,16
2016/3/21 6:59,2.2,15,2.4,15,3.1,14
2016/3/21 7:00,2,15,2.1,15,2.7,16
2016/3/21 7:01,2,15,2,15,3.9,14
2016/3/21 7:02,2.2,15,2.2,15,5.2,13
2016/3/21 7:03,2.3,15,2.3,15,6.8,14
2016/3/21 7:04,2.5,15,2.5,15,6.9,16
2016/3/21 7:05,2.7,15,2.7,15,5.7,16
2016/3/21 7:06,3,15,3,15,8.9,14
2016/3/21 7:07,3.1,15,3.1,15,3.9,15
2016/3/21 7:08,3.1,15,3.1,15,4.8,15
2016/3/21 7:09,3.1,15,3.1,15,3.5,16
2016/3/21 7:10,3.2,15,3.2,15,4.2,3
2016/3/21 7:11,3.3,16,3.3,15,5.1,6
2016/3/21 7:12,3.2,16,3.3,15,5.5,6
2016/3/21 7:13,2.8,1,3.1,15,1.3,5
2016/3/21 7:14,2.5,2,2.8,15,1.6,3
2016/3/21 7:15,2.2,2,2.4,15,1.9,3
2016/3/21 7:16,1.9,3,2.2,15,3.1,3
2016/3/21 7:17,1.8,3,1.9,15,2.7,1
2016/3/21 7:18,1.6,3,1.8,15,1,1
2016/3/21 7:19,1.5,4,1.6,15,1.5,10
2016/3/21 7:20,1.3,3,1.5,15,1.1,13
2016/3/21 7:21,1.2,3,1.3,16,3.1,1
2016/3/21 7:22,1.2,2,1.2,16,3.5,12
2016/3/21 7:23,1.4,1,1.4,1,3.8,13
2016/3/21 7:24,1.5,1,1.5,2,3.5,15
2016/3/21 7:25,1.7,16,1.7,2,4.3,15
2016/3/21 7:26,1.6,15,1.7,3,3.5,16
2016/3/21 7:27,1.5,15,1.6,3,1.3,15
2016/3/21 7:28,1.6,15,1.6,16,3.1,15
2016/3/21 7:29,1.8,15,1.8,15,3.3,15
2016/3/21 7:30,1.9,15,1.9,15,2.9,15
2016/3/21 7:31,1.8,15,1.9,15,1.8,14
2016/3/21 7:32,1.9,15,1.9,15,6,14
2016/3/21 7:33,1.9,15,1.9,15,6.2,15
2016/3/21 7:34,1.9,15,1.9,15,5.1,16
2016/3/21 7:35,2,15,2,15,4.9,15
2016/3/21 7:36,2.2,15,2.2,15,6.5,14
2016/3/21 7:37,2.4,15,2.4,15,5.5,15
2016/3/21 7:38,2.5,15,2.5,15,4.2,14
2016/3/21 7:39,2.4,15,2.4,15,2.5,15
2016/3/21 7:40,2.3,15,2.4,15,2.6,5
2016/3/21 7:41,2.4,16,2.4,15,3.7,3
2016/3/21 7:42,2.2,16,2.4,15,1.5,12
2016/3/21 7:43,2,16,2.2,15,1.4,7
2016/3/21 7:44,1.9,16,2,15,3.2,7
2016/3/21 7:45,1.8,1,1.9,15,3.5,6
2016/3/21 7:46,1.7,3,1.8,15,2.9,7
2016/3/21 7:47,1.4,5,1.6,15,1.9,7
2016/3/21 7:48,1.3,5,1.4,15,1,2
2016/3/21 7:49,1.3,5,1.3,15,1.8,2
2016/3/21 7:50,1.3,5,1.3,16,1.8,3
2016/3/21 7:51,1.2,6,1.3,16,1.3,11
2016/3/21 7:52,1.2,6,1.2,16,2.9,9
2016/3/21 7:53,1.3,7,1.3,16,2.2,9
2016/3/21 7:54,1.3,7,1.3,16,4.4,16
2016/3/21 7:55,1.4,4,1.4,1,6.8,14
2016/3/21 7:56,1.6,1,1.6,3,7,16
2016/3/21 7:57,1.9,16,1.9,16,9.3,14
2016/3/21 7:58,2.3,16,2.3,16,8.1,14
2016/3/21 7:59,2.4,15,2.4,16,5.7,15
2016/3/21 8:00,2.6,15,2.6,15,7.2,15
2016/3/21 8:01,2.9,15,2.9,15,8.3,15
2016/3/21 8:02,3.2,15,3.2,15,6.2,15
2016/3/21 8:03,3.3,16,3.3,15,4.7,3
2016/3/21 8:04,3.2,16,3.3,15,2.6,14
2016/3/21 8:05,3.1,16,3.2,15,5.2,15
2016/3/21 8:06,2.9,16,3.1,15,3.5,16
2016/3/21 8:07,3,15,3,15,9.2,14
2016/3/21 8:08,3.1,15,3.1,15,8.9,14
2016/3/21 8:09,3.3,16,3.3,15,8.5,15
2016/3/21 8:10,3.4,16,3.4,16,5.5,15
2016/3/21 8:11,3.3,16,3.4,16,7.4,15
2016/3/21 8:12,3.4,15,3.4,16,7.4,15
2016/3/21 8:13,3.8,15,3.8,15,8.6,14
2016/3/21 8:14,4,15,4,15,8.1,15
2016/3/21 8:15,4.2,15,4.2,15,7.6,16
2016/3/21 8:16,4.4,15,4.4,15,8.3,15
2016/3/21 8:17,4.2,15,4.4,15,3.2,15
2016/3/21 8:18,3.9,15,4.2,15,3.7,14
2016/3/21 8:19,3.7,15,3.9,15,3.9,15
2016/3/21 8:20,3.6,15,3.7,15,3.7,16
2016/3/21 8:21,3.7,15,3.7,15,8.1,15
2016/3/21 8:22,3.7,15,3.7,15,6.4,14
2016/3/21 8:23,3.6,15,3.7,15,6.9,16
2016/3/21 8:24,3.5,15,3.6,15,8.1,16
2016/3/21 8:25,3.2,15,3.5,15,4.7,15
2016/3/21 8:26,3,15,3.1,15,3.9,1
2016/3/21 8:27,3.1,15,3.1,15,7.2,16
2016/3/21 8:28,3.3,15,3.3,15,7.7,15
2016/3/21 8:29,4,15,4,15,14.1,15
2016/3/21 8:30,4.3,15,4.3,15,9.4,15
2016/3/21 8:31,4.3,15,4.3,15,9.3,15
2016/3/21 8:32,4.3,15,4.3,15,6.4,15
2016/3/21 8:33,4.2,15,4.2,15,7,16
2016/3/21 8:34,4.2,15,4.2,15,5.4,16
2016/3/21 8:35,4.4,15,4.4,15,7.8,16
2016/3/21 8:36,4.5,15,4.5,15,7.1,16
2016/3/21 8:37,4.2,15,4.5,15,3.3,16
2016/3/21 8:38,4.4,15,4.4,15,9.8,15
2016/3/21 8:39,4.1,15,4.3,15,9.9,15
2016/3/21 8:40,4.1,15,4.2,15,8.5,15
2016/3/21 8:41,3.8,15,4,15,5.6,15
2016/3/21 8:42,3.7,15,3.8,15,4.2,15
2016/3/21 8:43,3.7,15,3.8,15,7.2,16
2016/3/21 8:44,4.1,15,4.1,15,12.4,16
2016/3/21 8:45,4.2,15,4.3,15,8.4,15
2016/3/21 8:46,4.1,15,4.2,15,4.1,16
2016/3/21 8:47,4.1,16,4.1,15,3.1,1
2016/3/21 8:48,3.9,16,4.2,15,4.3,16
2016/3/21 8:49,3.4,16,3.9,15,4.5,16
2016/3/21 8:50,3.4,16,3.4,15,11.5,14
2016/3/21 8:51,3.7,16,3.7,15,15,15
2016/3/21 8:52,4,16,4.1,15,9.3,16
2016/3/21 8:53,4.2,16,4.2,15,11.4,15
2016/3/21 8:54,4.1,16,4.2,15,8.3,15
2016/3/21 8:55,4,16,4.1,15,6.1,15
2016/3/21 8:56,4,16,4,16,3.7,1
2016/3/21 8:57,4.2,15,4.2,16,5.8,14
2016/3/21 8:58,4.3,15,4.3,15,7.8,15
2016/3/21 8:59,4.6,15,4.6,15,9.4,16
2016/3/21 9:00,4.6,15,4.9,15,9.5,15
2016/3/21 9:01,4.5,15,4.6,15,6.2,16
2016/3/21 9:02,4.3,15,4.4,15,8.1,16
2016/3/21 9:03,4.2,15,4.4,15,7.6,16
2016/3/21 9:04,4.2,15,4.3,15,8.3,15
2016/3/21 9:05,4.2,15,4.2,15,6.9,15
2016/3/21 9:06,4.4,15,4.4,15,6.8,15
2016/3/21 9:07,4.5,16,4.5,15,5.2,16
2016/3/21 9:08,4.2,16,4.5,15,2.1,15
2016/3/21 9:09,3.9,16,4.1,15,5.5,15
2016/3/21 9:10,3.9,15,3.9,15,6.9,16
2016/3/21 9:11,3.8,15,3.9,15,7.4,15
2016/3/21 9:12,3.9,15,4,15,9.9,15
2016/3/21 9:13,4.1,15,4.1,15,9.9,14
2016/3/21 9:14,4.3,15,4.3,15,10.6,16
2016/3/21 9:15,4.5,15,4.5,15,12.8,15
2016/3/21 9:16,4.6,15,4.6,15,9.3,16
2016/3/21 9:17,4.7,15,4.7,15,9,15
2016/3/21 9:18,4.9,15,4.9,15,5.4,16
2016/3/21 9:19,5,15,5,15,6.8,14
2016/3/21 9:20,5,15,5,15,8.7,14
2016/3/21 9:21,5.3,15,5.3,15,11.3,15
2016/3/21 9:22,5.4,15,5.4,15,11.1,15
2016/3/21 9:23,5.1,15,5.3,15,6.8,14
2016/3/21 9:24,4.9,15,5.1,15,7.1,15
2016/3/21 9:25,4.8,15,4.8,15,9.9,1
2016/3/21 9:26,4.9,15,4.9,15,9.5,15
2016/3/21 9:27,4.9,15,4.9,15,11.5,15
2016/3/21 9:28,4.9,15,4.9,15,6.8,1
2016/3/21 9:29,4.9,15,4.9,15,6.3,14
2016/3/21 9:30,4.8,15,4.9,15,6.8,14
2016/3/21 9:31,4.6,15,4.8,15,8.2,16
2016/3/21 9:32,4.3,15,4.5,15,7.9,1
2016/3/21 9:33,4.2,16,4.3,15,5.5,16
2016/3/21 9:34,4.2,16,4.2,15,6.5,3
2016/3/21 9:35,3.7,16,4.2,15,2.7,14
2016/3/21 9:36,3.5,16,3.7,15,6.3,16
2016/3/21 9:37,3.4,16,3.4,15,6.8,15
2016/3/21 9:38,3.3,16,3.4,15,4.2,16
2016/3/21 9:39,3.4,16,3.4,15,7.8,14
2016/3/21 9:40,3.4,16,3.5,15,7.8,13
2016/3/21 9:41,3.7,16,3.7,15,12.7,15
2016/3/21 9:42,3.9,16,3.9,15,10.9,16
2016/3/21 9:43,4,15,4,16,5.8,14
2016/3/21 9:44,3.9,15,4,16,4.8,16
2016/3/21 9:45,4.2,15,4.2,15,6.3,15
2016/3/21 9:46,4.1,15,4.2,15,3.3,16
2016/3/21 9:47,3.9,15,4.1,15,6.5,16
2016/3/21 9:48,4.1,15,4.1,15,7.1,15
2016/3/21 9:49,4.2,15,4.2,15,9.5,16
2016/3/21 9:50,4.1,15,4.1,15,6,12
2016/3/21 9:51,3.8,15,4.1,15,6.5,12
2016/3/21 9:52,3.6,15,3.8,15,7.9,15
2016/3/21 9:53,3.6,15,3.6,15,5.6,15
2016/3/21 9:54,3.6,15,3.7,15,5.6,15
2016/3/21 9:55,3.6,15,3.6,15,7.2,14
2016/3/21 9:56,3.9,14,3.9,15,7.2,16
2016/3/21 9:57,4.3,14,4.4,14,13.2,15
2016/3/21 9:58,4.4,15,4.4,14,5.2,16
2016/3/21 9:59,4.4,14,4.4,14,11.5,15
2016/3/21 10:00,4.7,15,4.7,15,11.1,16
2016/3/21 10:01,4.8,15,4.9,15,9.5,15
2016/3/21 10:02,5,15,5,15,9.8,15
2016/3/21 10:03,5.2,15,5.2,15,10.2,14
2016/3/21 10:04,5.5,15,5.5,15,9.9,14
2016/3/21 10:05,5.6,15,5.6,15,10.8,16
2016/3/21 10:06,5.8,15,5.8,15,12.1,16
2016/3/21 10:07,5.8,15,5.9,15,10.6,1
2016/3/21 10:08,6.1,15,6.1,15,9.2,15
2016/3/21 10:09,5.9,15,6.1,15,6.7,16
2016/3/21 10:10,5.4,15,5.8,15,3.1,2
2016/3/21 10:11,5,15,5.3,15,4.7,14
2016/3/21 10:12,4.8,15,5,15,8.1,15
2016/3/21 10:13,4.6,15,4.8,15,5.2,15
2016/3/21 10:14,4.2,15,4.6,15,4.8,2
2016/3/21 10:15,3.9,15,4.2,15,3.6,9
2016/3/21 10:16,3.4,15,3.8,15,2.9,14
2016/3/21 10:17,2.8,15,3.3,15,4.3,15
2016/3/21 10:18,2.6,15,2.8,15,5.5,14
2016/3/21 10:19,2.6,15,2.6,15,7.5,15
2016/3/21 10:20,2.7,15,2.7,15,6,16
2016/3/21 10:21,2.8,15,2.8,15,6,14
2016/3/21 10:22,2.6,15,2.8,15,5.6,14
2016/3/21 10:23,2.7,15,2.7,15,6.1,1
2016/3/21 10:24,3.1,15,3.1,15,11,15
2016/3/21 10:25,3.6,15,3.6,15,10.8,15
2016/3/21 10:26,3.8,15,3.8,15,10.7,15
2016/3/21 10:27,3.9,15,3.9,15,7.7,16
2016/3/21 10:28,4.1,15,4.1,15,10.8,16
2016/3/21 10:29,4,15,4.1,15,7.4,16
2016/3/21 10:30,4.2,15,4.2,15,9.2,16
2016/3/21 10:31,4.2,15,4.2,15,4.9,1
2016/3/21 10:32,4.3,15,4.3,15,10.1,15
2016/3/21 10:33,4.6,15,4.6,15,10,16
2016/3/21 10:34,4.1,15,4.6,15,4.5,16
2016/3/21 10:35,4,15,4,15,8.1,16
2016/3/21 10:36,4.2,15,4.3,15,10.1,15
2016/3/21 10:37,4.5,15,4.5,15,9.1,14
2016/3/21 10:38,4.3,15,4.6,15,6.3,16
2016/3/21 10:39,4.4,15,4.4,15,7.2,15
2016/3/21 10:40,4.4,15,4.5,15,5.7,1
2016/3/21 10:41,4.3,15,4.4,15,4.7,1
2016/3/21 10:42,4.3,15,4.4,15,6.8,14
2016/3/21 10:43,4,15,4.2,15,6.3,16
2016/3/21 10:44,4,16,4,15,4.3,16
2016/3/21 10:45,3.8,16,4,15,6.9,3
2016/3/21 10:46,3.5,16,3.8,15,4.9,3
2016/3/21 10:47,3.4,1,3.5,15,8.6,2
2016/3/21 10:48,3.5,1,3.5,15,7.8,3
2016/3/21 10:49,3.3,1,3.5,15,7.4,2
2016/3/21 10:50,3.5,1,3.5,15,7,1
2016/3/21 10:51,3.5,1,3.6,15,6.2,16
2016/3/21 10:52,3.3,2,3.5,15,2.7,14
2016/3/21 10:53,3.1,2,3.3,15,2.4,1
2016/3/21 10:54,3.2,2,3.2,16,5,16
2016/3/21 10:55,3.1,1,3.2,16,4.4,1
2016/3/21 10:56,3.3,1,3.3,1,9.9,2
2016/3/21 10:57,3.1,1,3.3,1,4.5,3
2016/3/21 10:58,2.9,1,3.1,1,4.2,16
2016/3/21 10:59,2.8,16,2.9,1,8.1,14
2016/3/21 11:00,2.7,16,2.9,1,7.5,15